TimeEDT,TemperatureF,Dew PointF,Humidity,Sea Level PressureIn,VisibilityMPH,Wind Direction,Wind SpeedMPH,Gust SpeedMPH,PrecipitationIn,Events,Conditions,WindDirDegrees,DateUTC
12:53 AM,57.9,52.0,81,29.85,10.0,NNE,8.1,-,N/A,,Clear,30,2012-10-28 04:53:00
1:53 AM,57.9,52.0,81,29.85,10.0,ENE,6.9,-,N/A,,Clear,60,2012-10-28 05:53:00
2:53 AM,57.9,52.0,81,29.85,10.0,ENE,8.1,-,N/A,,Clear,70,2012-10-28 06:53:00
3:53 AM,57.9,50.0,75,29.83,10.0,East,9.2,-,N/A,,Clear,80,2012-10-28 07:53:00
4:53 AM,57.0,48.0,72,29.85,10.0,ENE,5.8,-,N/A,,Partly Cloudy,60,2012-10-28 08:53:00
5:53 AM,57.0,46.9,69,29.82,10.0,NE,9.2,-,N/A,,Overcast,50,2012-10-28 09:53:00
6:53 AM,57.0,45.0,64,29.81,10.0,NE,9.2,-,N/A,,Overcast,50,2012-10-28 10:53:00
7:53 AM,55.9,43.0,62,29.81,10.0,ENE,9.2,-,N/A,,Partly Cloudy,60,2012-10-28 11:53:00
8:53 AM,55.9,42.1,60,29.82,10.0,ENE,11.5,-,N/A,,Clear,70,2012-10-28 12:53:00
9:53 AM,55.9,44.1,64,29.84,10.0,ENE,10.4,-,N/A,,Mostly Cloudy,70,2012-10-28 13:53:00
10:53 AM,55.9,45.0,67,29.80,10.0,ENE,13.8,21.9,N/A,,Overcast,70,2012-10-28 14:53:00
11:53 AM,57.0,46.0,67,29.79,10.0,ENE,11.5,20.7,N/A,,Overcast,60,2012-10-28 15:53:00
12:53 PM,57.0,46.9,69,29.73,10.0,ENE,17.3,-,N/A,,Overcast,70,2012-10-28 16:53:00
1:53 PM,57.9,48.0,70,29.72,10.0,ENE,17.3,27.6,N/A,,Overcast,70,2012-10-28 17:53:00
2:53 PM,57.9,48.0,70,29.72,10.0,ENE,10.4,24.2,N/A,,Overcast,60,2012-10-28 18:53:00
3:53 PM,57.0,48.9,74,29.70,10.0,NE,12.7,-,N/A,,Overcast,40,2012-10-28 19:53:00
4:53 PM,57.0,48.9,74,29.68,10.0,NE,13.8,20.7,N/A,,Overcast,50,2012-10-28 20:53:00
5:53 PM,55.9,48.9,77,29.69,10.0,ENE,11.5,19.6,0.00,Rain,Light Rain,60,2012-10-28 21:53:00
6:53 PM,55.9,48.9,77,29.66,10.0,NE,10.4,21.9,0.02,,Overcast,50,2012-10-28 22:53:00
7:53 PM,55.0,50.0,83,29.66,10.0,NE,12.7,20.7,0.00,Rain,Light Rain,50,2012-10-28 23:53:00
8:53 PM,55.9,48.9,77,29.63,10.0,NE,13.8,23.0,0.00,,Overcast,50,2012-10-29 00:53:00
9:53 PM,57.0,48.0,72,29.62,10.0,ENE,20.7,27.6,N/A,,Overcast,60,2012-10-29 01:53:00
10:41 PM,55.4,46.4,72,29.63,10.0,ENE,13.8,25.3,N/A,,Overcast,60,2012-10-29 02:41:00
10:53 PM,57.0,46.9,69,29.62,10.0,ENE,13.8,32.2,N/A,,Mostly Cloudy,70,2012-10-29 02:53:00
11:53 PM,57.0,46.0,67,29.60,10.0,ENE,24.2,34.5,N/A,,Overcast,70,2012-10-29 03:53:00